Flag for United Kingdom Weather past 2 weeks in Swansea, Wales, United Kingdom

Now
45 °F

Quite cool.


Feels Like: 35 °F
Forecast: 44 / 52 °F
Wind: 26 mph from South

Location: Pembrey Sands

Current Time: Feb 28, 2015 at 1:25:41 AM

Latest Report: Feb 28, 2015 at 12:00 AM


Visibility: 1 mi

Pressure: 29.90 "Hg

Humidity: 97%

Dew point: 44 °F

Location of SwanseaLocation

Historic Weather in Swansea — Graph

°F

Swansea temperature yesterday

Maximum temperature yesterday: 47 °F (at 2:00 PM)
Minimum temperature yesterday: 32 °F (at 8:00 AM)
Average temperature yesterday: 42 °F

Past Weeks' High & Low Weather Summary

 TemperatureHumidityPressure
High50 °F (Feb 25, 1:00 PM)100% (Feb 26, 5:00 AM)30.73 "Hg (Feb 26, 5:00 AM)
Low26 °F (Feb 22, 3:00 AM)54% (Feb 26, 4:00 PM)29.21 "Hg (Feb 23, 10:00 AM)
Average43 °F85%29.87 "Hg
* Reported Midnight between Feb 12 and Feb 13 — Midnight between Feb 27 and Feb 28, Swansea, Weather by CustomWeather, © 2015

Note: Actual official high and low records may vary slightly from our data, if they occured in-between our weather recording intervals... More about our weather records

Advertising

Swansea weather history for previous 24 hours

 ConditionsComfort  
Time TempWeatherWind HumidityBarometerVisibility
12:00 AM
Sat, Feb 28
45 °FQuite cool.26 mph97%29.90 "Hg1 mi
11:00 PM
Fri, Feb 27
44 °FQuite cool.28 mph93%29.94 "Hg3 mi
10:00 PM44 °FQuite cool.24 mph88%29.97 "Hg8 mi
8:00 PM45 °FQuite cool.23 mph85%30.03 "Hg9 mi
7:00 PM45 °FQuite cool.22 mph84%30.04 "Hg10 mi
6:00 PM46 °FCool.21 mph76%30.04 "Hg9 mi
5:00 PM45 °FCool.16 mph81%30.05 "Hg7 mi
4:00 PM46 °FCool.18 mph81%30.09 "Hg8 mi
3:00 PM46 °FCool.14 mph73%30.09 "Hg10 mi
2:00 PM47 °FCool.16 mph72%30.13 "Hg9 mi
1:00 PM46 °FCool.18 mph72%30.14 "Hg7 mi
12:00 PM46 °FCool.17 mph72%30.15 "Hg7 mi
11:00 AM45 °FCool.8 mph74%30.16 "Hg7 mi
10:00 AM43 °FQuite cool.12 mph77%30.16 "Hg7 mi
9:00 AM40 °FQuite cool.8 mph84%30.16 "Hg11 mi
8:00 AM32 °FChilly.2 mph94%30.15 "Hg11 mi
7:00 AM33 °FChilly.6 mph86%30.14 "Hg12 mi
6:00 AM37 °FChilly.10 mph84%30.14 "Hg13 mi
5:00 AM39 °FChilly.15 mph81%30.13 "Hg12 mi
4:00 AM40 °FChilly.15 mph79%30.13 "Hg12 mi
1:00 AM39 °FChilly.12 mph78%30.10 "Hg9 mi
Weather by CustomWeather, © 2015

See weather overviewHow to use our weather pages